World > North America > United States > New York

Hancock, New York Regional Weather

Lat: 41.95N, Lon: 75.28W
Wx Zone: NYZ057
Feedback

Hancock, NY Regional Weather

Expires:202002240800;;007195
ASUS41 KBGM 240710
RWRBGM

REGIONAL WEATHER ROUNDUP
NATIONAL WEATHER SERVICE BINGHAMTON NY
200 AM EST MON FEB 24 2020

Note: "fair" indicates few or no clouds below 12,000 feet with no
significant weather and/or obstructions to visibility.

* = Station(s) that does not report precipitation, such as rain, 
snow, etc, also no thunder or fog.


NYZ009-015>018-022>025-036-037-044>046-055>057-062-240800
...Central New York...
  
CITY           SKY/WX    TMP DP  RH WIND       PRES   REMARKS
Binghamton     MOCLDY    39  13  34 SW6       29.96F WCI  35          
Cortland       FAIR      27  21  80 CALM      29.97S                  
Dansville      FAIR      31  22  69 SE8       29.95S WCI  23          
Elmira         FAIR      23  19  85 CALM      29.98F                  
Endicott       PTSUNNY   30  25  80 CALM      29.99F                  
Ithaca         FAIR      40  17  39 S7        29.97F                  
Hamilton       PTCLDY    27  19  74 CALM      29.97F                  
Monticello     CLOUDY    29  19  66 CALM      30.03F                  
Norwich        CLOUDY    27  19  74 CALM      29.99F                  
Oneonta        PTCLDY    39  12  33 SW7       29.97S WCI  34          
Penn Yan       FAIR      39  18  42 SW9       29.95F WCI  33          
Rome           CLOUDY    28  22  78 CALM      29.98F                  
Seneca Falls   SUNNY     39  19  45 S10       29.96S WCI  32          
Sidney         CLOUDY    28  23  80 CALM      30.00F                  
Skaneateles    PTSUNNY   39  18  41 SW7       29.95R WCI  34          
Syracuse       CLOUDY    43  18  36 S6        29.95S                  
$$
 

SKY/WX - Weather  TMP - Temperature  DP - Dew Point  RH - Relative Humidity
WIND - Wind Direction/Speed PRES - Barometric Pressure VSB - Visibility
WCI - Wind Chill Index E13G22 Wind - East Wind 13 mph/Gusts of 22 mph
Hancock Weather Map
What is UTC time?